(59018) = 1996 AN19 = 1998 SH80

Discovered at Socorro on 1998-09-26 by LINEAR.

Orbit

Orbit type: Main Belt

Note: WebGL enabled browser required.

epoch2024-03-31.0
epoch JD2460400.5
perihelion date2020-11-10.75511
perihelion JD2459164.25511
argument of perihelion (°)220.49916
ascending node (°)223.38184
inclination (°)4.77063
eccentricity0.2019588
perihelion distance (AU)1.8703639
Tisserand w.r.t. Jupiter3.5
ΔV w.r.t. Earth (km/sec)8.6
semimajor axis (AU)2.3436935
mean anomaly (°)339.59174
mean daily motion (°/day)0.27469620
aphelion distance (AU)2.817
period (years)3.59
P-vector [x]0.10813928
P-vector [y]0.93223918
P-vector [z]0.34530567
Q-vector [x]-0.99249321
Q-vector [y]0.12119737
Q-vector [z]-0.01638387
absolute magnitude16.46
phase slope0.15
uncertainty0
referenceMPEC 2024-D122
observations used822
oppositions16
arc length (days)10211
first opposition used1996
last opposition used2023
residual rms (arc-secs)0.62
perturbers coarse indicatorM-v
perturbers precise indicator003Ek
first observation date used1996-01-15.0
last observation date used2023-12-30.0
computer nameMPCLINUX
JD of orbit computation2456789.206325
perihelion JD uncertainty (days)5.8908E-05
argument of perihelion uncertainty (°)6.0353E-05
ascending node uncertainty (°)5.6826E-05
inclination uncertainty (°)4.0792E-06
eccentricity uncertainty 3.4460E-08
perihelion distance uncertainty (AU)8.0778E-08
Minimum Orbit Intersection Distances (in AU)
for orbit epoch: 2460400.5, reference: E2024-DC2
Mercury1.56541
Venus1.15227
Earth0.88966
Mars0.33121
Jupiter2.42737
Saturn7.16958
Uranus16.0795
Neptune27.5526

Observations

832 total observations over interval: 1996 01 15.31964 – 2023 12 30.235391
These data are available for download (format description).

Date (UT) J2000 RA J2000 Dec Magn Location Ref
1996 01 15.31964 09 26 04.94 +05 40 05.6 19.0 V 691 – Steward Observatory, Kitt Peak-Spacewatch MPC 26686
1996 01 15.34048 09 26 04.01 +05 40 06.6   691 – Steward Observatory, Kitt Peak-Spacewatch MPC 26686
1996 01 15.36140 09 26 03.07 +05 40 07.5   691 – Steward Observatory, Kitt Peak-Spacewatch MPC 26686
1996 01 24.31042 09 18 46.74 +05 56 46.7   691 – Steward Observatory, Kitt Peak-Spacewatch MPC 26686
1996 01 24.33132 09 18 45.55 +05 56 50.4 18.6 V 691 – Steward Observatory, Kitt Peak-Spacewatch MPC 26686
1996 01 24.35223 09 18 44.34 +05 56 53.8   691 – Steward Observatory, Kitt Peak-Spacewatch MPC 26686
1996 01 29.32364 09 14 04.51 +06 13 45.5 18.2 V 691 – Steward Observatory, Kitt Peak-Spacewatch MPS 79515
1996 01 29.34559 09 14 03.17 +06 13 50.6 18.3 V 691 – Steward Observatory, Kitt Peak-Spacewatch MPS 79515
1996 01 29.36671 09 14 01.87 +06 13 55.5 18.3 V 691 – Steward Observatory, Kitt Peak-Spacewatch MPS 79515
1998 09 16.26937 00 06 43.51 +07 21 45.1 18.6 R 699 – Lowell Observatory-LONEOS MPS 58695
1998 09 16.29103 00 06 42.32 +07 21 36.3   699 – Lowell Observatory-LONEOS MPS 58695
1998 09 16.31339 00 06 41.11 +07 21 25.7   699 – Lowell Observatory-LONEOS MPS 58695
1998 09 26.13104 23 57 59.42 +06 08 38.7 19.0   704 – Lincoln Laboratory ETS, New Mexico MPS 2739
1998 09 26.14753 23 57 58.48 +06 08 31.1 19.2   704 – Lincoln Laboratory ETS, New Mexico MPS 2739
1998 09 26.16428 23 57 57.62 +06 08 23.4 19.1   704 – Lincoln Laboratory ETS, New Mexico MPS 2739
1998 09 26.18080 23 57 56.58 +06 08 14.8 19.1   704 – Lincoln Laboratory ETS, New Mexico MPS 2739
1998 09 27.18254 23 57 02.26 +06 00 08.6 18.5 R 699 – Lowell Observatory-LONEOS MPS 54281
1998 09 27.20737 23 57 00.86 +05 59 56.1   699 – Lowell Observatory-LONEOS MPS 54281
1998 09 27.21697 23 57 00.28 +05 59 51.4 18.7   704 – Lincoln Laboratory ETS, New Mexico MPS 2739
1998 09 27.23220 23 56 59.44 +05 59 44.1   699 – Lowell Observatory-LONEOS MPS 54281
1998 09 27.23432 23 56 59.33 +05 59 42.6 19.4   704 – Lincoln Laboratory ETS, New Mexico MPS 2739
1998 09 27.25161 23 56 58.42 +05 59 34.2 19.4   704 – Lincoln Laboratory ETS, New Mexico MPS 2739
1998 09 27.26912 23 56 57.36 +05 59 26.4 19.4   704 – Lincoln Laboratory ETS, New Mexico MPS 2739
1998 09 27.28649 23 56 56.39 +05 59 17.4 19.4   704 – Lincoln Laboratory ETS, New Mexico MPS 2739
1998 10 14.21391 23 43 03.35 +03 37 50.9 18.7 R 699 – Lowell Observatory-LONEOS MPS 58695
1998 10 14.23874 23 43 02.26 +03 37 40.6   699 – Lowell Observatory-LONEOS MPS 58695
1998 10 14.26358 23 43 01.21 +03 37 27.6   699 – Lowell Observatory-LONEOS MPS 58695
2000 04 07.28961 13 14 36.03 -11 22 55.6 19.1   704 – Lincoln Laboratory ETS, New Mexico MPS 58695
2000 04 07.31773 13 14 34.43 -11 22 42.7 18.9   704 – Lincoln Laboratory ETS, New Mexico MPS 58695
2000 04 07.33175 13 14 33.58 -11 22 36.1 19.2   704 – Lincoln Laboratory ETS, New Mexico MPS 58695
2002 11 11.35362 06 40 54.59 +18 45 03.9 19.2   704 – Lincoln Laboratory ETS, New Mexico MPS 69488
2002 11 11.37100 06 40 54.86 +18 44 58.7 19.5   704 – Lincoln Laboratory ETS, New Mexico MPS 69488
2002 11 11.38841 06 40 55.19 +18 44 53.1 19.4   704 – Lincoln Laboratory ETS, New Mexico MPS 69488
2002 11 11.40579 06 40 55.44 +18 44 47.5 19.3   704 – Lincoln Laboratory ETS, New Mexico MPS 69488
2002 12 11.30740 06 32 33.78 +16 22 34.5 18.1   704 – Lincoln Laboratory ETS, New Mexico MPS 67460
2002 12 11.32263 06 32 33.11 +16 22 30.3 18.6   704 – Lincoln Laboratory ETS, New Mexico MPS 67460
2002 12 11.33779 06 32 32.19 +16 22 27.9 18.4   704 – Lincoln Laboratory ETS, New Mexico MPS 67460
2002 12 11.35285 06 32 31.48 +16 22 24.9 19.0   704 – Lincoln Laboratory ETS, New Mexico MPS 67460
2002 12 11.36801 06 32 30.64 +16 22 21.6 18.2   704 – Lincoln Laboratory ETS, New Mexico MPS 67460
2002 12 12.29126 06 31 45.30 +16 18 54.1 18.6   704 – Lincoln Laboratory ETS, New Mexico MPS 67460
2002 12 12.30643 06 31 44.42 +16 18 50.4 19.0   704 – Lincoln Laboratory ETS, New Mexico MPS 67460
2002 12 12.32122 06 31 43.73 +16 18 47.0 18.1   704 – Lincoln Laboratory ETS, New Mexico MPS 67460
2002 12 12.33592 06 31 42.95 +16 18 43.8 18.2   704 – Lincoln Laboratory ETS, New Mexico MPS 67460
2002 12 31.24265 06 13 33.25 +15 28 03.0 17.3   704 – Lincoln Laboratory ETS, New Mexico MPS 69488
2002 12 31.25810 06 13 32.28 +15 28 02.3 17.9   704 – Lincoln Laboratory ETS, New Mexico MPS 69488
2002 12 31.27316 06 13 31.42 +15 28 01.7 18.7   704 – Lincoln Laboratory ETS, New Mexico MPS 69488
2002 12 31.30445 06 13 29.43 +15 27 57.8 18.0   704 – Lincoln Laboratory ETS, New Mexico MPS 69488
2003 01 07.23548 06 07 07.48 +15 20 09.0 18.2   704 – Lincoln Laboratory ETS, New Mexico MPS 69488
2003 01 07.25041 06 07 06.62 +15 20 08.3 18.4   704 – Lincoln Laboratory ETS, New Mexico MPS 69488
2003 01 07.26523 06 07 05.84 +15 20 07.8 18.2   704 – Lincoln Laboratory ETS, New Mexico MPS 69488
2003 01 07.28025 06 07 05.01 +15 20 07.6 19.1   704 – Lincoln Laboratory ETS, New Mexico MPS 69488
2003 01 07.29512 06 07 04.20 +15 20 05.9 18.5   704 – Lincoln Laboratory ETS, New Mexico MPS 69488
2003 01 08.23718 06 06 17.21 +15 19 30.1 17.5 C 704 – Lincoln Laboratory ETS, New Mexico MPS 292178
2003 01 08.23934 06 06 17.03 +15 19 31.0 18.4   704 – Lincoln Laboratory ETS, New Mexico MPS 69488
2003 01 08.25283 06 06 16.31 +15 19 30.1 18.4   704 – Lincoln Laboratory ETS, New Mexico MPS 69488
2003 01 08.25404 06 06 16.22 +15 19 30.2 18.3   704 – Lincoln Laboratory ETS, New Mexico MPS 69488
2003 01 08.26966 06 06 15.39 +15 19 29.5 18.6   704 – Lincoln Laboratory ETS, New Mexico MPS 69488
2003 01 08.28202 06 06 14.76 +15 19 28.9 18.4   704 – Lincoln Laboratory ETS, New Mexico MPS 69488
2003 01 08.28481 06 06 14.59 +15 19 29.5 18.3   704 – Lincoln Laboratory ETS, New Mexico MPS 69488
2003 01 08.29661 06 06 13.99 +15 19 28.6 18.3   704 – Lincoln Laboratory ETS, New Mexico MPS 69488
2003 01 08.29955 06 06 13.91 +15 19 29.3 18.4   704 – Lincoln Laboratory ETS, New Mexico MPS 69488
2005 08 24.43806 22 25 49.63 -01 36 05.3 18.9   644 – Palomar Mountain/NEAT MPS 139916
2005 08 24.46096 22 25 48.32 -01 36 13.1 18.7   644 – Palomar Mountain/NEAT MPS 139916
2005 08 24.48413 22 25 47.01 -01 36 20.7 18.8   644 – Palomar Mountain/NEAT MPS 139916
2005 08 30.24066 22 20 22.26 -02 10 45.6 18.7   704 – Lincoln Laboratory ETS, New Mexico MPS 140778
2005 08 30.26283 22 20 20.90 -02 10 55.0 19.4   704 – Lincoln Laboratory ETS, New Mexico MPS 140778
2005 08 30.27388 22 20 20.25 -02 10 58.9 19.1   704 – Lincoln Laboratory ETS, New Mexico MPS 140778
2005 08 30.28494 22 20 19.62 -02 11 02.6 19.4   704 – Lincoln Laboratory ETS, New Mexico MPS 140778
2005 11 01.11286 21 58 50.80 -07 10 47.4 20.5 V G96 – Mt. Lemmon Survey MPS 150315
2005 11 01.11946 21 58 50.98 -07 10 47.8 20.2 V G96 – Mt. Lemmon Survey MPS 150315
2005 11 01.12602 21 58 51.20 -07 10 47.8 20.4 V G96 – Mt. Lemmon Survey MPS 150315
2005 11 01.13259 21 58 51.42 -07 10 48.1 20.3 V G96 – Mt. Lemmon Survey MPS 150315
2006 12 15.50571 11 41 09.49 -03 28 23.0 20.2 V G96 – Mt. Lemmon Survey MPS 194425
2006 12 15.51260 11 41 10.03 -03 28 26.3 20.5 V G96 – Mt. Lemmon Survey MPS 194425
2006 12 15.51918 11 41 10.42 -03 28 30.9 20.7 V G96 – Mt. Lemmon Survey MPS 194425
2006 12 15.52602 11 41 10.93 -03 28 34.1 20.2 V G96 – Mt. Lemmon Survey MPS 194425
2007 03 09.43533 11 51 47.53 -05 59 01.9 18.6 R 644 – Palomar Mountain/NEAT MPS 202632
2007 03 09.45564 11 51 46.38 -05 58 52.8 18.7 R 644 – Palomar Mountain/NEAT MPS 202632
2007 03 09.47604 11 51 45.23 -05 58 43.9 19.0 R 644 – Palomar Mountain/NEAT MPS 202632
2007 03 11.69065 11 49 42.71 -05 42 26.7 18.8 R D29 – Purple Mountain Observatory, XuYi Station MPS 205237
2007 03 11.71601 11 49 41.27 -05 42 15.3 18.2 R D29 – Purple Mountain Observatory, XuYi Station MPS 205237
2007 03 11.74458 11 49 39.60 -05 42 02.0 18.3 R D29 – Purple Mountain Observatory, XuYi Station MPS 205237
2007 03 11.77045 11 49 38.10 -05 41 50.7 18.5 R D29 – Purple Mountain Observatory, XuYi Station MPS 205237
2007 03 12.01227 11 49 24.69 -05 40 02.5 18.5 R 106 – Crni Vrh MPS 203965
2007 03 12.02128 11 49 24.19 -05 39 58.7 18.3 R 106 – Crni Vrh MPS 203965
2007 03 12.03026 11 49 23.68 -05 39 55.1 18.6 R 106 – Crni Vrh MPS 203965
